STARLINK-36588, 67573

Orbit data source: Space-Track

STARLINK-36588, 67573 is a payload satellite owned by SpaceX/Seattle (US) in SSO that was launched on Sun, 25 Jan 2026 UTC via an FALCON 9 launch vehicle from the Air Force Western Test Range (AFWTR). Payload-class satellites include a variety of spacecraft equipped with specific instruments for various scientific and technological missions. These include communications satellites like Starlink; space stations such as the ISS; scientific satellites like the Hubble; Earth observation satellites from companies like Planet Labs, Umbra, and HawkEye 360; GPS; miniature CubeSats for education and research; and military/defense satellites.

Loading next visibility...
Identifier
67573, 2026-016N
Orbit
SSO
Country
Flag of USUS
Related business
Manufacturer
SpaceX/Seattle
Mission
Operational Commercial Communications
Bus & Motor
STARLINK V2MO, Unknown motor
Mass
575 kg wet, ~530 kg dry
Launch date (UTC)
2026-01-25 (5 months ago)
Launch vehicle
FALCON 9
Launch site
Air Force Western Test Range (AFWTR)
Object type
Payload
Rocket body
Debris
Shape & HBR
Box + 2 Pan, 17.7 m
Radar Cross Section
36.964 m², Large (>1 m²)

Expand to show TLE details & history
Last TLE update: 1 day ago

TLE from 1 day ago
0 STARLINK-36588
1 67573U 26016N   26170.68018209  .00013783  00000-0  42840-3 0  9996
2 67573  97.2836 230.6365 0000678  92.1777 267.9543 15.33449787 22498
Epoch: 2026-06-19T16:19Z
TLE epoch observation values (Epoch: 2026-06-19T16:19:27.732Z)
Latitude
-0.00007°
Longitude
77.86527°
Altitude
468.658 km
Speed
7.632 km/s
True Right ascension
15h 22m 32s
True Declination
0° 00' 00"
Sunlit
Object was in full shadow at epoch
Visualization orbit readout
Latitude
Unknown
Longitude
Unknown
Altitude
Unknown
Speed
Unknown
Apparent Right ascension
Unknown
Apparent Declination
Unknown
Sunlit
N/A
Visualization observer readout
Local Sidereal Time
08:43:05
Azimuth
Unknown
Elevation
Unknown
Doppler factor
Unknown
Orbital elements
Apogee altitude
462.935 km
Perigee altitude
462.008 km
Semi-major axis
6,840.609 km
Eccentricity
0.00007
Inclination
97.2836°
RAAN
230.6365°
Arg. of periapsis
92.1777°
True anomaly
267.94654°
Mean anomaly
267.9543°
Eccentric anomaly
267.95042°
Mean motion
3.8362 °/min
Orbital period
93.84 mins
BSTAR
0.0004284
Loading maneuver chart data...
Computing Atmospheric mass density...
Loading historical data...
Loading historical data...
Loading historical data...
Loading historical data...
Loading historical data...
Loading historical data...
Loading historical data...

Documentation

Showing up to 5 results
|